This demonstration page uses our WeatherBlox Daily Observations layout. Learn more.

Left ArrowRight Arrow

53.62937, 11.41316

Hourly Observations for July 13, 2016

Temp ( °F °C ) Dew Point ( °F °C ) Humidity (%) Winds ( mph kmh ) Pressure ( in mb ) Visibility ( mi km ) Precip ( " mm )
6:20 am 06:20 Mostly Sunny 52 11 52 11 100 100 VRB 1 2 29.88 1012 7 11 N/A
6:50 am 06:50 Mostly Sunny 54 12 54 12 100 100 NNE 1 2 29.88 1012 7 11 N/A
7:20 am 07:20 Mostly Cloudy 57 14 57 14 100 100 VRB 1 2 29.88 1012 30 48 N/A
7:50 am 07:50 Mostly Cloudy 59 15 55 13 88 88 VRB 1 2 29.88 1012 30 48 N/A
8:20 am 08:20 Mostly Cloudy 59 15 57 14 94 94 VRB 2 4 29.88 1012 30 48 N/A
8:50 am 08:50 Mostly Cloudy 61 16 55 13 83 83 NNW 3 6 29.88 1012 30 48 N/A
9:20 am 09:20 Mostly Cloudy 63 17 55 13 77 77 N 3 6 29.88 1012 30 48 N/A
9:50 am 09:50 Mostly Cloudy 64 18 55 13 73 73 NE 5 7 29.88 1012 30 48 N/A
10:20 am 10:20 Mostly Cloudy 64 18 54 12 68 68 NNW 3 6 29.88 1012 30 48 N/A
10:50 am 10:50 Mostly Cloudy 64 18 54 12 68 68 VRB 2 4 29.88 1012 30 48 N/A
11:20 am 11:20 Cloudy 64 18 54 12 68 68 WNW 5 7 29.88 1012 30 48 N/A
11:50 am 11:50 Cloudy with Rain 61 16 57 14 88 88 WSW 6 9 29.91 1013 5 8 N/A
12:20 pm 12:20 Cloudy with Rain 59 15 59 15 100 100 S 5 7 29.88 1012 5 8 N/A
12:50 pm 12:50 Mostly Sunny 61 16 59 15 94 94 S 5 7 29.88 1012 7 11 N/A
1:20 pm 13:20 Mostly Sunny 64 18 59 15 83 83 VRB 2 4 29.88 1012 7 11 N/A
1:50 pm 13:50 Mostly Sunny 66 19 55 13 68 68 VRB 5 7 29.88 1012 30 48 N/A
2:20 pm 14:20 Partly Cloudy 68 20 55 13 64 64 VRB 3 6 29.88 1012 30 48 N/A
2:50 pm 14:50 Mostly Cloudy 68 20 55 13 64 64 SSE 8 13 29.88 1012 30 48 N/A
3:20 pm 15:20 Mostly Cloudy 68 20 54 12 60 60 SSE 6 9 29.88 1012 30 48 N/A
3:29 pm 15:29 Mostly Cloudy 63 17 52 11 68 68 SW 12 19 29.88 1012 30 48 N/A
3:50 pm 15:50 Mostly Cloudy with Light Showers 59 15 50 10 72 72 WNW 14 22 29.88 1012 30 48 N/A
4:20 pm 16:20 Mostly Cloudy 55 13 54 12 94 94 NNW 5 7 29.91 1013 30 48 N/A
4:50 pm 16:50 Mostly Sunny 55 13 55 13 100 100 ENE 3 6 29.88 1012 7 11 N/A
5:20 pm 17:20 Partly Cloudy 61 16 57 14 88 88 E 7 11 29.88 1012 30 48 N/A
5:50 pm 17:50 Mostly Sunny 63 17 57 14 83 83 E 5 7 29.88 1012 7 11 N/A
6:50 pm 18:50 Mostly Sunny 63 17 54 12 73 73 VRB 2 4 29.88 1012 7 11 N/A

Powered by AerisWeather